Regional Weather Roundup
Issued by NWS Northern Indiana

Home | Current Version | Previous Version | Graphics & Text | Print | Product List | Glossary On
Versions: 1 2 3 4 5 6 7 8 9 10 11 12 13 14 15 16 17 18 19 20 21 22 23 24 25 26 27 28 29 30 31 32 33 34 35 36 37 38 39 40 41 42 43 44 45 46 47 48 49 50
000
ASUS43 KIWX 251710
RWRIWX

KIWX WEATHER ROUNDUP
NATIONAL WEATHER SERVICE NORTHERN INDIANA
1200 PM EST THU DEC 25 2014

NOTE: "FAIR" INDICATES FEW OR NO CLOUDS BELOW 12,000 FEET WITH NO
SIGNIFICANT WEATHER AND/OR OBSTRUCTIONS TO VISIBILITY.

* THESE STATIONS ARE NOT UNDER NWS QUALITY CONTROL. THEY ALSO MAY NOT
  REPORT WEATHER SUCH AS PRECIPITATION OR FOG.

INZ001>027-251800-
NORTHERN INDIANA

CITY           SKY/WX    TMP DP  RH WIND       PRES   REMARKS
GARY*          CLOUDY    37  27  65 MISG      29.99R
VALPARAISO     CLOUDY    36  29  75 SW17      30.00R
MICHIGAN CITY* CLOUDY    36  27  69 SW18G24   29.99S
LAPORTE*       CLOUDY    37  31  79 SW17G24   29.99S
KNOX*          CLOUDY    35  28  75 SW17G23   30.00S WCI  25
SOUTH BEND     CLOUDY    36  30  79 SW13      29.99R
GOSHEN         CLOUDY    35  29  78 W20G31    29.99R WCI  24
MONTICELLO*    CLOUDY    37  32  82 SW14G22   30.03S
LOGANSPORT*    CLOUDY    36  30  80 SW15      30.05R
ROCHESTER*     CLOUDY    37  32  81 SW13G18   30.03S
WARSAW*        CLOUDY    34  30  86 SW17G25   30.01R WCI  23
ANGOLA*        CLOUDY    34  28  80 W16       29.97S WCI  23
FORT WAYNE     CLOUDY    36  30  79 W20       30.03R
HUNTINGTON*    CLOUDY    36  30  80 W14G22    30.03R
PERU/GRISSOM   CLOUDY    36  36  99 SW20      30.04R
MARION*        CLOUDY    36  30  81 SW18      30.06R

$$
INZ028>050-251800-
CENTRAL INDIANA

CITY           SKY/WX    TMP DP  RH WIND       PRES   REMARKS
LAFAYETTE      CLOUDY    37  30  75 SW13G25   30.05R
KOKOMO*        CLOUDY    36  28  75 SW24G31   30.06R
MUNCIE*        CLOUDY    37  30  75 SW13G23   30.06R
INDIANAPOLIS   CLOUDY    36  31  82 SW12      30.08S

$$
MIZ043>046-050>051-056>058-064>065-071>073-077>080-251800-
SOUTHWEST LOWER MICHIGAN

CITY           SKY/WX    TMP DP  RH WIND       PRES   REMARKS
BATTLE CREEK   CLOUDY    36  29  75 SW17      29.95R
BENTON HARBOR  CLOUDY    35  29  78 SW16G25   29.97R WCI  25
COLDWATER*     CLOUDY    34  30  83 MISG      29.96S
HILLSDALE*     CLOUDY    35  30  82 W12G21    29.94S WCI  27
HOLLAND        CLOUDY    38  30  73 SW18G24   29.94R
GRAND RAPIDS   CLOUDY    36  29  75 SW16      29.92R
KALAMAZOO      CLOUDY    35  28  75 SW17G24   29.97R WCI  25
STURGIS*       CLOUDY    34  30  86 SW14G21   29.97R WCI  24
THREE RIVERS*  CLOUDY    35  30  80 W10G21    29.97R WCI  27

$$
OHZ001>008-015>018-024>025-251800-
NORTHWEST OHIO

CITY           SKY/WX    TMP DP  RH WIND       PRES   REMARKS
WAUSEON*       CLOUDY    37  32  81 W18       29.98S
DEFIANCE       CLOUDY    37  30  75 SW12G21   30.01R
FINDLAY        CLOUDY    39  30  70 W18G28    30.01R
TOLEDO EXPRESS CLOUDY    38  30  73 SW18      29.98R
TOLEDO METCALF CLOUDY    40  31  70 SW18G29   29.99S
LIMA           CLOUDY    38  30  73 SW17      30.03R

$$
AND FOR LAKE MICHIGAN COASTAL AND OPEN LAKE BUOY OBSERVATIONS

STATION/POSITION TEMP    WIND        PRES    VSBY  WAVE
                 AIR SEA DIR/SP/G                  HT/PER
                 (F)     (DEG/KT/KT) (MB)    (MI)  (FT/S)
CALUMET HARBOR    36     200/ 13/ 17 1013.7F
MICHIGAN CITY     35     210/ 18/ 22   N/A
SAINT JOSEPH      37     200/ 21/ 27 1014.6S

$$
&&


USA.gov is the U.S. government's official web portal to all federal, state and local government web resources and services.